When you browse on this site, cookies collect data to enhance your experience and personalize the content and advertising you see.
Visit our Privacy Policy to learn more. By continuing to use the site, you agree to this use of cookies and data.
  • In Switzerland
  • List of Countries
  • For 7 days
  • Water Temperature
  • Weather Map
  • Weather Widgets
  • user-avatar
    Login

    Hourly Weather Toulouse

    Today, 20 November, Wednesday

    Time Temperature Precipitation Wind Pressure Humidity
    00:00 +3°C° 0 mm 2 mps 747 mmHg 89%
    01:00 +3°C° 0 mm 2 mps 747 mmHg 89%
    02:00 +3°C° 0 mm 2 mps 746 mmHg 89%
    03:00 +3°C° 0 mm 2 mps 746 mmHg 89%
    04:00 +3°C° 0 mm 2 mps 746 mmHg 89%
    05:00 +2°C° 0 mm 2 mps 745 mmHg 88%
    06:00 +2°C° 0 mm 2 mps 745 mmHg 86%
    07:00 +3°C° 0 mm 3 mps 745 mmHg 84%
    08:00 +4°C° 0 mm 3 mps 745 mmHg 81%
    09:00 +5°C° 0 mm 4 mps 745 mmHg 78%
    10:00 +7°C° 0 mm 4 mps 744 mmHg 73%
    11:00 +8°C° 0 mm 4 mps 744 mmHg 68%
    12:00 +10°C° 0 mm 5 mps 744 mmHg 63%
    13:00 +11°C° 0 mm 4 mps 743 mmHg 64%
    14:00 +11°C° 0 mm 4 mps 743 mmHg 65%
    15:00 +11°C° 0 mm 4 mps 742 mmHg 66%
    16:00 +8°C° 0 mm 4 mps 742 mmHg 70%
    17:00 +8°C° 0 mm 3 mps 742 mmHg 75%
    18:00 +7°C° 0 mm 3 mps 742 mmHg 80%
    19:00 +5°C° 0 mm 3 mps 743 mmHg 80%
    20:00 +6°C° 0 mm 2 mps 743 mmHg 80%
    21:00 +6°C° 0 mm 2 mps 743 mmHg 80%
    22:00 +5°C° 0 mm 2 mps 743 mmHg 79%
    23:00 +6°C° 0 mm 1 mps 742 mmHg 77%

    Tomorrow, 21 November, Thursday

    Time Temperature Precipitation Wind Pressure Humidity
    00:00 +6°C° 0 mm 1 mps 742 mmHg 75%
    01:00 +6°C° 0 mm 1 mps 742 mmHg 74%
    02:00 +5°C° 0 mm 1 mps 741 mmHg 72%
    03:00 +5°C° 0 mm 1 mps 741 mmHg 70%
    04:00 +5°C° 0 mm 1 mps 741 mmHg 69%
    05:00 +5°C° 0 mm 1 mps 741 mmHg 67%
    06:00 +5°C° 0 mm 1 mps 741 mmHg 66%
    07:00 +6°C° 0 mm 1 mps 741 mmHg 64%
    08:00 +7°C° 0 mm 1 mps 741 mmHg 63%
    09:00 +7°C° 0 mm 0 mps 742 mmHg 61%
    10:00 +9°C° 0 mm 1 mps 741 mmHg 59%
    11:00 +10°C° 0 mm 1 mps 741 mmHg 57%
    12:00 +12°C° 0 mm 2 mps 741 mmHg 55%
    13:00 +12°C° 0 mm 1 mps 741 mmHg 56%
    14:00 +12°C° 0 mm 1 mps 741 mmHg 57%
    15:00 +12°C° 0 mm 1 mps 741 mmHg 58%
    16:00 +11°C° 0 mm 1 mps 741 mmHg 61%
    17:00 +9°C° 0 mm 0 mps 742 mmHg 64%
    18:00 +7°C° 0 mm 0 mps 742 mmHg 67%
    19:00 +8°C° 0 mm 1 mps 742 mmHg 68%
    20:00 +8°C° 0 mm 1 mps 742 mmHg 69%
    21:00 +7°C° 0 mm 2 mps 743 mmHg 70%
    22:00 +6°C° 0 mm 2 mps 742 mmHg 70%
    23:00 +6°C° 0 mm 2 mps 742 mmHg 71%

    Day after tomorrow, 22 November, Friday

    Time Temperature Precipitation Wind Pressure Humidity
    00:00 +5°C° 0 mm 3 mps 742 mmHg 71%
    01:00 +5°C° 0 mm 3 mps 742 mmHg 72%
    02:00 +5°C° 0 mm 3 mps 741 mmHg 72%
    03:00 +5°C° 0 mm 3 mps 741 mmHg 73%
    04:00 +5°C° 0 mm 3 mps 740 mmHg 74%
    05:00 +5°C° 0 mm 4 mps 740 mmHg 75%
    06:00 +5°C° 0 mm 4 mps 740 mmHg 76%
    07:00 +6°C° 0 mm 5 mps 739 mmHg 76%
    08:00 +7°C° 0 mm 6 mps 738 mmHg 77%
    09:00 +8°C° 0 mm 7 mps 738 mmHg 77%
    10:00 +9°C° 0 mm 7 mps 737 mmHg 72%
    11:00 +10°C° 0 mm 8 mps 736 mmHg 67%
    12:00 +11°C° 0 mm 8 mps 735 mmHg 61%
    13:00 +11°C° 0 mm 7 mps 734 mmHg 61%
    14:00 +11°C° 0 mm 7 mps 732 mmHg 60%
    15:00 +13°C° 0 mm 6 mps 731 mmHg 60%
    16:00 +12°C° 0 mm 7 mps 731 mmHg 61%
    17:00 +12°C° 0 mm 8 mps 730 mmHg 62%
    18:00 +12°C° 0 mm 9 mps 729 mmHg 62%
    19:00 +11°C° 0 mm 9 mps 729 mmHg 66%
    20:00 +11°C° 0 mm 9 mps 729 mmHg 70%
    21:00 +11°C° 0 mm 9 mps 728 mmHg 74%
    22:00 +11°C° 0 mm 7 mps 728 mmHg 75%
    23:00 +10°C° 0 mm 6 mps 727 mmHg 76%

    23 November, Saturday

    Time Temperature Precipitation Wind Pressure Humidity
    00:00 +10°C° 0 mm 5 mps 727 mmHg 77%
    01:00 +10°C° 0 mm 4 mps 727 mmHg 79%
    02:00 +10°C° 0 mm 3 mps 727 mmHg 80%
    03:00 +9°C° 0 mm 2 mps 727 mmHg 82%
    04:00 +9°C° 0 mm 2 mps 727 mmHg 83%
    05:00 +9°C° 0 mm 2 mps 728 mmHg 83%
    06:00 +8°C° 0 mm 3 mps 729 mmHg 84%
    07:00 +9°C° 0.1 mm 3 mps 729 mmHg 81%
    08:00 +10°C° 0.1 mm 4 mps 730 mmHg 79%
    09:00 +10°C° 0.1 mm 4 mps 731 mmHg 76%
    10:00 +11°C° 0 mm 4 mps 731 mmHg 71%
    11:00 +12°C° 0 mm 4 mps 732 mmHg 67%
    12:00 +13°C° 0 mm 3 mps 732 mmHg 62%
    13:00 +12°C° 0.1 mm 3 mps 732 mmHg 68%
    14:00 +12°C° 0.1 mm 3 mps 733 mmHg 74%
    15:00 +11°C° 0.1 mm 3 mps 733 mmHg 79%
    16:00 +10°C° 0.7 mm 3 mps 734 mmHg 82%
    17:00 +10°C° 0.7 mm 3 mps 735 mmHg 85%
    18:00 +10°C° 0.7 mm 4 mps 736 mmHg 88%
    19:00 +10°C° 0.6 mm 4 mps 737 mmHg 89%
    20:00 +9°C° 0.6 mm 5 mps 738 mmHg 90%
    21:00 +9°C° 0.6 mm 6 mps 738 mmHg 90%
    22:00 +9°C° 2 mm 6 mps 739 mmHg 91%
    23:00 +9°C° 2 mm 6 mps 740 mmHg 91%

    24 November, Sunday

    Time Temperature Precipitation Wind Pressure Humidity
    00:00 +9°C° 2 mm 6 mps 740 mmHg 92%
    01:00 +9°C° 1.3 mm 6 mps 740 mmHg 91%
    02:00 +9°C° 1.3 mm 6 mps 741 mmHg 90%
    03:00 +9°C° 1.3 mm 6 mps 741 mmHg 89%
    04:00 +9°C° 0.7 mm 6 mps 741 mmHg 90%
    05:00 +9°C° 0.7 mm 5 mps 742 mmHg 91%
    06:00 +9°C° 0.7 mm 5 mps 743 mmHg 92%
    07:00 +10°C° 0.2 mm 4 mps 743 mmHg 91%
    08:00 +11°C° 0.2 mm 4 mps 744 mmHg 91%
    09:00 +11°C° 0.2 mm 4 mps 745 mmHg 90%
    10:00 +11°C° 0.2 mm 4 mps 745 mmHg 88%
    11:00 +12°C° 0.2 mm 4 mps 745 mmHg 85%
    12:00 +13°C° 0.2 mm 4 mps 746 mmHg 82%
    13:00 +13°C° 0.3 mm 4 mps 746 mmHg 83%
    14:00 +12°C° 0.3 mm 5 mps 746 mmHg 83%
    15:00 +12°C° 0.3 mm 5 mps 747 mmHg 84%
    16:00 +12°C° 0.2 mm 5 mps 747 mmHg 86%
    17:00 +10°C° 0.2 mm 5 mps 748 mmHg 88%
    18:00 +10°C° 0.2 mm 5 mps 749 mmHg 90%
    19:00 +10°C° 0.1 mm 5 mps 749 mmHg 89%
    20:00 +10°C° 0.1 mm 4 mps 749 mmHg 89%
    21:00 +10°C° 0.1 mm 4 mps 750 mmHg 89%
    22:00 +10°C° 0 mm 3 mps 750 mmHg 89%
    23:00 +10°C° 0 mm 3 mps 750 mmHg 89%

    25 November, Monday

    Time Temperature Precipitation Wind Pressure Humidity
    00:00 +9°C° 0 mm 2 mps 750 mmHg 89%
    01:00 +9°C° 0 mm 2 mps 750 mmHg 89%
    02:00 +9°C° 0 mm 2 mps 750 mmHg 89%
    03:00 +10°C° 0 mm 1 mps 750 mmHg 89%
    04:00 +9°C° 0 mm 1 mps 750 mmHg 89%
    05:00 +9°C° 0 mm 1 mps 750 mmHg 89%
    06:00 +8°C° 0 mm 1 mps 750 mmHg 90%
    07:00 +9°C° 0 mm 1 mps 750 mmHg 87%
    08:00 +10°C° 0 mm 1 mps 750 mmHg 84%
    09:00 +11°C° 0 mm 1 mps 750 mmHg 81%
    10:00 +12°C° 0 mm 1 mps 750 mmHg 77%
    11:00 +13°C° 0 mm 1 mps 750 mmHg 72%
    12:00 +14°C° 0 mm 1 mps 750 mmHg 68%
    13:00 +14°C° 0 mm 1 mps 750 mmHg 68%
    14:00 +14°C° 0 mm 0 mps 750 mmHg 68%
    15:00 +14°C° 0 mm 0 mps 750 mmHg 68%
    16:00 +13°C° 0 mm 0 mps 750 mmHg 70%
    17:00 +12°C° 0 mm 0 mps 750 mmHg 73%
    18:00 +12°C° 0 mm 1 mps 750 mmHg 75%
    19:00 +12°C° 0 mm 1 mps 750 mmHg 77%
    20:00 +12°C° 0 mm 1 mps 751 mmHg 78%
    21:00 +12°C° 0 mm 1 mps 751 mmHg 80%
    22:00 +12°C° 0 mm 1 mps 751 mmHg 82%
    23:00 +11°C° 0 mm 1 mps 751 mmHg 85%
    Show more